Theta_e
334 333 333 332 330 326 327 326 328 329 329 328 327 323 319 316 311 309 309 310 309 309 311 307 308 310 310 312 313 311 311 311 313 311 311 313 312 308 304 303 304 303 302 303 302 301 302 303 304 307 308 307 307 307 305 305 306 307 308 307 308 308 307 308 309 310 310 310 309 309 309 309 309 309
333 333 332 332 330 327 325 326 328 328 328 327 327 325 323 320 313 312 308 309 314 310 313 313 308 310 309 312 314 314 312 313 312 309 309 311 312 306 304 302 301 302 302 302 302 301 301 302 304 307 307 307 305 305 305 304 304 308 307 307 307 307 307 307 309 311 311 309 308 308 308 309 309 309
332 332 332 332 331 328 326 326 326 327 327 327 326 325 324 322 319 316 312 308 314 316 311 312 314 309 311 311 313 313 313 312 312 313 313 308 309 309 306 303 303 303 302 301 303 305 303 303 303 304 305 306 305 305 304 304 305 306 306 305 306 306 307 307 307 310 310 309 309 308 308 309 309 309
330 331 331 331 330 328 325 324 325 324 325 326 324 324 323 322 325 320 315 311 311 317 314 313 313 314 313 313 312 313 312 312 311 315 313 312 309 307 309 304 303 304 302 302 303 306 304 303 304 303 306 305 305 304 303 302 303 304 304 303 304 305 307 306 305 308 309 308 308 308 307 308 309 309
327 328 328 328 328 329 327 323 324 322 322 323 324 322 321 319 322 320 316 311 313 317 319 318 313 314 316 312 313 312 313 315 315 313 316 314 313 312 311 310 304 302 302 302 301 301 301 301 303 301 300 301 302 303 301 302 302 301 301 302 303 304 305 306 305 305 307 307 307 307 306 306 308 309
322 324 323 323 323 326 329 326 321 321 320 319 319 319 319 317 318 322 314 313 311 312 316 314 315 315 316 310 312 313 314 315 316 313 315 316 315 313 314 311 311 298 303 302 301 302 301 301 302 301 301 301 301 302 301 301 300 300 299 298 302 303 304 306 305 304 303 306 305 306 305 305 307 308
320 321 322 321 322 322 326 327 324 322 320 319 318 318 318 318 318 316 315 314 312 313 312 316 313 313 314 314 312 312 315 315 314 312 313 313 314 314 317 314 312 299 300 301 300 301 302 301 301 301 300 300 300 300 300 300 300 299 299 298 300 300 302 301 302 302 303 303 303 304 304 305 305 306
321 322 322 322 322 322 323 324 324 322 322 320 318 319 319 320 317 319 319 317 315 314 311 313 311 312 314 312 315 313 314 315 313 312 313 314 313 314 313 313 313 304 299 301 301 302 302 301 301 300 300 300 300 300 300 299 299 299 298 299 299 299 300 300 300 301 302 302 302 302 302 303 304 306
322 322 323 320 321 322 322 322 322 322 322 319 320 319 317 316 318 318 317 316 316 315 312 314 314 315 313 313 314 312 311 312 313 312 311 311 311 313 312 311 309 304 301 301 301 301 301 301 300 300 300 300 300 299 299 299 299 299 299 299 298 298 299 300 301 301 300 301 301 302 302 302 304 305
322 323 321 321 322 322 324 322 322 322 321 320 320 319 318 316 317 317 317 317 315 313 311 314 315 314 311 311 313 313 312 311 309 310 312 312 312 312 313 312 309 308 307 310 307 303 302 300 300 301 300 299 299 299 299 299 299 298 298 297 298 298 298 299 300 300 299 301 301 301 301 301 303 305
320 320 320 322 322 322 324 324 323 323 323 322 322 321 322 318 317 317 315 313 313 313 312 313 315 314 314 315 311 312 312 312 311 311 311 311 311 313 314 312 310 311 309 304 300 303 303 303 304 300 299 299 299 299 299 299 298 297 296 296 295 295 296 297 297 299 300 300 299 298 298 298 300 301
320 320 321 321 321 322 323 325 325 325 324 323 323 322 321 320 318 317 316 315 312 312 313 311 312 313 313 312 315 313 310 309 309 310 310 310 312 312 314 314 311 311 311 309 306 302 302 301 299 298 299 299 299 299 300 299 299 297 296 296 297 297 297 297 298 298 299 299 298 297 296 297 298 298
320 320 321 321 322 323 317 307 312 314 315 324 322 323 321 321 319 319 317 315 313 313 313 312 314 313 312 313 312 310 310 309 309 313 314 312 314 313 311 311 312 310 310 310 308 306 308 305 306 305 306 304 303 301 300 300 298 297 296 297 297 297 298 298 298 298 298 298 297 297 296 297 297 296
321 321 321 322 316 312 311 306 302 301 303 307 318 325 323 321 320 319 317 315 314 314 312 311 312 311 312 312 314 313 314 315 317 315 314 311 313 312 311 311 310 310 310 309 307 307 308 308 307 306 306 305 308 307 306 305 302 298 296 297 297 297 297 297 297 297 297 296 296 296 296 296 296 296
321 322 320 323 319 316 313 313 299 300 299 299 300 301 308 315 321 319 317 316 317 314 313 314 315 313 314 315 316 315 315 318 315 314 315 313 313 310 308 306 309 310 311 309 308 306 308 308 305 305 306 306 307 305 305 298 298 297 296 297 297 297 297 297 297 296 296 295 295 295 295 295 296 296
321 321 323 322 323 322 322 322 320 308 299 298 298 298 299 300 300 303 319 319 318 318 316 316 316 315 315 316 318 315 315 315 315 315 315 314 312 311 309 309 309 309 311 309 307 306 306 307 306 305 305 305 306 304 300 296 296 296 296 297 296 297 297 297 297 296 296 295 295 295 295 296 295 295
320 321 322 323 323 319 315 316 321 322 320 299 296 298 297 297 297 297 297 301 321 322 318 317 317 317 317 317 317 318 317 318 315 315 312 314 313 312 311 311 312 306 310 308 306 305 304 305 304 305 305 305 306 302 297 296 296 297 296 296 296 296 296 296 296 296 295 295 295 295 296 296 296 296
321 321 321 320 321 323 322 322 322 322 322 322 318 316 317 319 308 296 295 295 295 308 320 320 318 321 322 317 320 321 318 314 313 313 312 314 312 312 312 312 310 307 307 307 306 304 303 304 305 303 305 305 305 305 300 295 296 296 296 296 296 296 295 295 295 295 294 294 294 294 295 295 295 295
320 320 321 321 321 322 322 323 319 321 321 321 321 321 320 321 321 319 317 316 317 316 319 321 322 323 325 322 322 318 318 317 318 317 315 314 313 313 308 307 307 306 305 308 307 303 303 304 303 304 304 304 304 305 298 295 296 296 296 295 295 295 295 295 294 294 294 294 294 294 293 293 294 294
321 321 321 321 321 322 322 314 301 306 319 320 320 319 320 320 320 320 309 300 300 310 320 322 321 322 323 313 321 321 318 318 318 312 313 314 310 307 306 305 303 303 303 306 304 303 303 304 302 303 304 303 302 304 304 296 295 296 296 295 295 294 294 294 293 293 293 294 293 294 293 293 293 293
319 321 320 320 321 321 322 309 301 298 299 318 319 319 320 321 320 319 316 295 292 292 292 292 292 293 293 296 298 301 301 314 314 313 311 309 309 307 305 304 302 302 302 302 304 304 302 303 302 302 303 303 301 302 303 303 297 295 296 295 294 294 294 294 293 293 293 293 293 293 293 293 293 293
316 317 309 312 318 320 321 303 300 298 304 317 319 320 319 319 319 319 319 311 307 292 292 292 292 292 293 294 294 295 296 297 304 314 310 311 308 307 307 303 302 303 302 302 304 301 300 302 302 301 302 302 302 302 302 303 301 296 295 294 293 294 294 293 292 292 293 294 293 293 293 293 293 299
313 314 312 307 307 309 306 293 295 294 302 318 319 320 320 318 319 320 322 316 313 311 310 310 309 307 300 306 310 307 294 296 302 314 315 313 308 307 306 306 302 300 299 302 304 300 300 300 302 300 299 298 301 301 301 300 301 302 301 301 300 294 294 293 292 292 293 293 293 293 293 293 294 300
308 310 311 310 299 294 294 293 292 293 293 311 318 319 318 318 317 322 322 319 317 315 312 313 312 313 312 311 310 308 304 304 308 312 314 312 310 309 307 305 303 303 302 301 303 301 302 302 300 301 299 295 293 298 298 298 300 300 301 300 299 296 295 294 294 293 293 294 293 293 293 293 294 299
305 306 307 309 301 295 294 293 293 293 293 294 310 315 316 318 318 311 319 317 301 314 313 312 309 309 308 309 309 308 307 306 307 308 310 311 311 309 306 303 303 303 301 301 297 303 300 301 299 300 297 298 297 295 296 297 298 299 299 299 298 299 299 299 298 300 295 293 293 292 293 293 293 295
303 304 304 305 301 293 292 292 292 292 293 293 303 309 300 299 297 313 314 316 311 310 311 310 306 306 306 306 307 306 305 305 304 306 306 307 308 309 308 305 302 301 300 300 293 302 300 299 299 298 298 295 295 295 293 294 297 298 299 299 299 298 299 299 299 299 300 301 301 297 296 293 293 292
301 303 304 304 297 291 291 291 291 291 291 293 302 297 295 294 293 297 311 312 310 309 308 307 306 305 305 305 304 303 303 303 304 303 303 303 303 302 302 304 306 304 302 300 301 302 300 298 299 297 296 296 293 293 294 294 296 298 297 297 298 299 299 299 298 298 299 299 300 294 293 292 291 291
300 301 302 299 292 291 290 290 291 291 291 297 294 293 293 292 293 305 308 308 309 305 304 303 304 305 305 305 304 303 303 302 302 301 301 301 302 302 301 301 300 302 302 301 300 300 299 297 297 297 296 293 292 292 293 295 295 296 295 297 298 299 298 298 297 297 298 299 299 298 298 298 299 298
299 294 290 289 289 290 290 289 290 293 292 290 290 291 291 294 304 306 308 309 309 305 303 302 304 305 305 305 305 304 301 299 298 297 298 300 300 300 300 300 299 299 299 299 299 298 297 296 295 295 294 294 293 294 294 294 294 295 295 293 294 296 297 298 297 297 297 298 298 297 297 297 297 298
289 289 289 288 289 291 294 300 302 302 302 294 293 292 293 301 303 305 307 308 307 305 304 303 304 306 305 303 302 300 298 297 297 297 296 296 297 297 297 296 296 297 298 298 297 296 296 295 296 296 295 295 294 294 294 293 293 294 294 293 294 295 297 297 297 297 296 296 296 296 298 298 297 296
298 297 296 296 292 292 290 290 292 293 295 299 302 304 304 304 304 306 307 308 308 307 307 305 306 307 303 299 295 295 296 296 296 297 295 295 296 297 297 296 294 295 296 296 296 296 296 296 296 296 294 294 295 295 295 294 292 293 294 295 293 290 294 296 296 296 296 296 297 297 297 297 297 295
297 298 293 294 300 301 301 302 303 303 304 304 301 303 303 303 302 302 299 300 308 309 310 308 305 301 298 294 293 294 295 295 295 296 296 295 295 295 296 294 293 294 295 295 295 295 293 296 296 296 296 295 294 295 295 294 293 293 293 294 293 294 295 294 295 295 296 296 296 295 296 296 296 297
296 297 297 297 298 299 297 297 298 300 300 300 302 303 303 302 302 302 302 302 303 305 305 301 297 292 294 293 294 295 294 294 294 296 296 296 296 295 296 295 294 293 293 292 294 295 296 296 296 296 296 296 296 295 293 292 293 293 292 293 293 293 294 295 295 295 296 295 294 294 294 296 296 295
291 292 293 294 296 296 297 296 295 296 296 296 297 298 295 296 299 300 300 301 302 302 299 300 294 293 292 292 294 294 293 293 294 296 294 296 296 294 294 293 294 294 293 293 294 294 295 295 296 296 296 295 296 296 295 293 292 293 293 292 293 293 294 295 295 295 295 294 293 292 293 293 294 294
292 293 293 294 295 295 295 295 295 295 296 296 297 297 298 299 298 296 298 299 298 297 296 294 293 293 293 292 292 292 291 292 293 294 294 295 295 295 294 293 293 292 293 292 292 293 294 294 295 294 294 294 294 295 295 297 294 293 293 292 293 293 293 295 294 295 295 295 294 291 290 293 293 294
292 294 294 294 294 295 295 295 295 296 295 295 296 297 296 296 297 296 296 297 299 296 294 294 292 291 292 293 291 291 291 291 293 294 293 294 293 293 294 293 291 292 293 293 292 293 293 293 294 293 290 291 289 289 291 293 294 295 292 290 293 293 294 295 295 295 295 294 294 292 290 289 291 293
294 295 295 295 295 295 296 297 297 295 295 295 295 295 295 295 295 299 297 293 297 293 293 292 291 291 291 291 290 290 290 290 290 291 291 292 291 291 290 289 290 291 292 293 293 294 293 293 292 292 291 290 289 288 290 292 291 293 296 290 290 293 293 294 294 293 294 294 294 293 291 289 289 292
293 294 295 295 296 297 297 297 296 294 295 296 296 295 296 297 298 297 297 296 292 290 290 290 289 289 289 289 289 289 289 288 288 288 288 289 289 289 290 289 290 291 292 292 293 293 293 293 292 292 291 289 289 289 288 291 291 292 292 293 290 291 291 292 292 292 292 294 293 294 293 291 291 291
294 294 294 294 295 296 296 297 295 295 297 296 294 294 293 296 296 294 292 293 291 289 289 289 288 288 288 289 289 288 287 287 288 288 288 289 290 289 290 290 290 291 291 290 292 292 292 292 292 292 292 290 289 289 290 289 289 291 291 289 294 291 292 291 292 292 291 291 293 294 292 293 293 288
295 294 294 295 296 297 297 297 296 295 294 294 295 295 295 291 292 290 290 290 289 288 289 289 289 288 289 289 288 289 288 288 288 289 289 289 289 290 289 290 290 290 290 290 290 291 292 291 292 292 292 292 292 292 292 292 292 293 292 290 288 291 292 292 292 291 291 292 293 291 291 291 290 292
295 295 296 296 296 297 296 296 296 296 294 294 294 292 294 292 291 290 290 289 288 288 288 288 288 288 288 289 289 289 287 287 288 289 288 289 288 289 288 287 289 290 290 289 290 291 291 293 292 285 291 292 291 291 291 289 288 290 291 292 288 287 287 289 292 292 290 292 292 290 290 289 288 289
294 294 294 295 295 295 296 295 295 294 293 293 292 292 290 289 289 289 289 288 289 289 289 288 288 287 288 289 289 289 288 287 288 288 288 288 288 288 287 288 289 290 289 289 289 290 293 295 293 293 292 292 292 289 288 288 288 289 290 293 293 288 286 287 288 289 293 292 291 290 289 289 289 288
294 295 294 294 295 294 294 294 294 293 293 294 292 291 290 289 289 289 289 289 289 289 288 287 287 286 287 288 288 287 287 287 287 288 288 288 288 288 288 289 289 289 290 290 291 291 292 293 295 293 292 292 291 290 288 288 289 289 290 291 292 294 292 288 288 287 287 287 287 289 291 290 288 285
294 294 294 294 294 294 294 294 293 293 292 291 292 291 290 289 288 287 287 287 287 287 287 287 287 287 287 287 287 287 287 287 288 288 288 288 288 289 289 289 289 289 290 290 290 290 291 292 292 292 291 291 291 291 289 289 290 290 290 291 291 291 292 292 291 288 287 286 286 287 286 286 287 287
292 293 293 292 292 292 292 292 292 293 292 292 290 289 288 287 287 287 287 288 288 288 288 287 287 287 287 287 288 287 287 287 288 288 288 289 289 289 289 289 288 288 289 289 289 289 290 291 292 292 292 291 291 291 290 290 290 290 290 290 290 291 293 292 292 292 292 292 289 285 287 286 287 286
Wind_Speed
5 4 5 5 4 4 3 3 4 4 5 7 7 7 7 7 8 7 6 6 5 7 6 6 6 7 7 6 4 5 5 4 3 4 4 4 5 5 6 7 7 7 6 6 5 5 5 5 5 5 5 5 5 6 5 5 5 5 6 6 6 7 8 8 6 6 8 9 10 9 9 9 9 10
4 4 5 5 4 4 5 4 4 4 5 6 7 6 5 6 7 7 8 7 5 6 6 4 7 8 8 6 5 3 4 5 3 4 4 4 4 6 5 6 7 7 6 5 4 4 4 3 2 2 2 2 2 2 3 4 4 3 3 4 4 5 6 7 7 5 5 5 7 7 7 8 8 9
4 5 6 5 5 5 5 5 5 5 5 6 6 4 3 4 4 7 6 6 5 4 7 6 4 9 9 8 6 3 3 4 3 3 3 4 7 6 5 4 6 5 5 5 4 4 4 2 1 2 3 2 3 2 2 2 3 3 2 2 2 3 4 5 6 5 5 4 4 5 5 6 6 7
4 5 6 5 5 5 5 5 5 6 5 5 5 5 4 3 2 4 5 4 7 5 5 6 6 7 8 8 7 6 5 4 4 4 4 5 6 5 5 6 4 5 4 4 3 3 4 2 2 3 3 4 4 4 3 1 2 3 2 2 1 2 2 3 5 6 5 4 4 5 5 5 6 6
4 4 4 5 4 5 5 5 5 5 6 5 4 5 5 4 3 4 4 3 5 5 1 3 5 6 6 8 8 8 7 5 5 5 4 5 5 4 4 5 7 5 5 4 4 5 3 3 3 3 4 6 6 7 6 4 2 2 3 3 3 3 2 2 4 5 6 5 5 5 6 6 6 7
3 3 4 4 4 5 6 5 6 6 7 7 7 6 6 6 5 5 5 3 4 7 5 5 4 5 6 8 10 8 8 7 6 7 6 5 5 4 4 4 5 8 7 7 4 4 3 4 5 5 7 8 7 7 7 6 6 4 2 2 3 3 3 3 3 4 6 7 7 6 5 6 7 7
5 5 4 4 4 3 5 6 5 5 6 7 7 7 6 6 6 7 5 4 5 7 8 7 7 7 7 8 9 10 7 7 7 8 7 6 5 4 4 4 3 8 6 6 5 5 6 6 6 8 8 8 8 7 6 7 7 7 6 4 2 2 2 3 3 4 5 6 7 8 8 7 9 9
4 4 4 4 5 5 6 6 5 5 5 6 6 6 6 5 6 5 4 5 3 5 6 8 8 8 7 8 5 6 6 6 6 7 5 4 5 5 5 4 4 7 5 5 6 7 8 8 9 9 8 8 7 7 7 8 8 8 8 8 7 6 5 4 4 4 6 7 8 9 9 10 10 11
3 3 3 4 5 6 5 5 5 5 7 6 5 6 5 5 4 4 5 5 4 4 6 6 6 5 7 7 7 7 8 7 7 6 6 6 5 5 3 3 3 9 7 6 7 8 10 10 10 9 8 7 7 7 8 8 8 8 9 9 8 8 6 4 3 4 5 5 7 8 8 9 10 11
2 2 3 3 3 4 5 5 5 5 7 5 6 7 6 6 4 5 5 5 5 6 6 5 6 5 7 7 6 7 8 8 8 7 6 4 3 3 4 3 3 5 6 5 6 8 9 10 10 8 7 7 7 8 8 8 8 8 8 8 9 8 7 7 6 7 7 7 8 8 9 10 11 11
3 2 2 2 2 2 2 4 5 6 5 4 6 5 5 5 5 5 6 7 7 7 7 5 5 6 6 6 7 6 6 7 7 7 6 6 5 4 4 5 4 5 5 8 9 8 8 8 7 7 7 7 7 7 8 7 7 7 7 7 7 7 6 6 6 7 8 8 8 8 8 8 9 10
2 2 3 3 2 2 1 2 3 4 5 4 4 3 4 4 5 5 5 6 7 7 7 7 6 6 6 5 4 3 5 6 7 8 8 8 6 5 4 4 6 6 6 6 6 7 9 8 9 9 8 6 5 6 7 5 5 5 5 5 5 5 6 6 7 7 7 7 8 8 9 9 9 10
2 2 2 2 2 2 3 2 1 1 1 3 4 3 4 4 4 4 4 5 6 6 6 6 5 5 6 6 6 7 7 10 10 7 7 6 4 4 5 4 4 6 6 6 6 6 5 6 6 5 5 5 6 5 3 7 6 4 4 5 5 5 6 7 6 6 7 7 8 9 9 9 10 9
3 3 3 2 3 5 5 6 6 6 5 4 3 2 5 5 4 4 4 5 5 6 6 7 6 7 7 7 8 8 9 7 5 4 6 7 5 4 4 4 4 4 6 6 6 5 4 4 5 5 4 5 3 3 3 3 4 3 2 3 3 4 4 4 6 6 6 7 7 8 9 9 9 9
4 4 3 3 4 4 5 6 8 8 8 8 5 4 5 5 5 6 6 6 5 6 6 6 6 7 8 7 7 8 7 5 6 6 6 6 5 7 8 7 5 4 6 7 5 5 4 4 5 4 4 4 2 2 3 4 3 1 1 2 3 4 4 4 4 5 5 5 6 7 7 8 8 8
2 3 2 2 2 4 4 3 4 5 7 8 7 5 8 8 8 6 6 6 5 6 7 6 6 7 8 7 6 6 6 6 6 6 6 7 7 8 9 8 7 6 7 6 6 5 5 4 3 3 3 3 3 1 6 4 2 1 1 2 3 4 4 4 4 4 5 6 6 7 7 8 7 7
2 2 2 2 1 0 2 3 4 4 4 6 6 6 6 7 10 10 9 8 7 6 7 7 7 8 7 7 6 6 5 3 6 5 5 6 7 7 8 8 3 5 6 5 6 5 6 5 5 4 4 3 3 4 6 4 3 1 1 2 3 4 5 4 4 5 5 6 6 6 7 7 8 8
1 1 2 3 3 1 2 2 3 4 4 4 5 5 6 6 7 8 9 11 10 8 7 8 8 7 7 7 4 5 5 6 7 6 6 4 5 6 5 3 4 5 4 6 6 5 6 6 5 5 4 4 4 4 8 6 3 2 2 3 5 6 6 5 4 5 6 6 6 6 6 7 6 7
2 1 1 3 4 3 4 3 3 4 5 5 4 5 6 7 6 6 7 7 7 6 6 7 8 6 4 5 4 6 6 6 5 5 6 7 5 2 5 2 3 4 3 3 5 7 6 5 5 5 4 4 4 4 9 7 4 3 3 4 5 6 6 4 4 5 6 6 6 6 6 7 7 8
2 2 2 3 3 3 4 2 5 6 5 5 6 7 7 7 6 6 3 1 3 3 3 4 4 3 2 2 6 7 7 7 5 4 3 4 5 6 7 7 6 4 3 2 5 4 4 5 5 4 4 3 4 3 3 11 5 3 4 4 5 5 3 4 4 5 6 7 6 6 6 6 8 8
2 2 3 3 4 5 5 4 0 5 5 6 7 8 8 6 6 6 4 5 2 3 3 4 4 5 4 3 4 6 10 7 7 6 6 7 7 7 8 6 6 6 5 5 4 5 4 5 5 4 4 3 3 4 3 5 8 6 5 6 5 3 3 4 5 5 6 6 6 7 6 6 8 11
2 2 2 4 4 5 6 6 3 3 4 6 7 7 8 8 8 8 5 3 3 5 4 1 3 3 4 6 7 8 10 9 9 9 9 8 8 8 8 8 7 5 5 5 4 4 4 4 4 3 3 4 5 4 3 3 6 10 10 9 4 4 2 5 5 6 5 5 5 6 6 5 8 8
2 3 1 3 2 4 7 10 9 6 6 7 8 9 9 9 9 9 7 6 6 5 4 3 3 3 3 3 4 5 9 12 12 10 8 6 9 9 10 7 6 4 5 5 5 5 4 4 3 2 3 4 2 2 2 4 3 3 4 3 5 8 4 5 6 6 5 4 5 4 5 4 7 7
5 4 4 2 6 7 8 8 8 7 7 7 8 8 9 10 13 8 7 6 6 5 5 6 6 5 3 3 4 5 6 7 10 8 7 8 9 10 8 7 8 7 4 6 7 5 2 3 2 2 2 3 2 2 3 4 3 3 4 3 5 5 7 9 9 10 5 4 4 3 4 2 5 6
4 3 3 4 5 8 8 9 10 10 8 8 8 9 10 11 8 5 9 5 6 6 6 6 5 5 4 5 5 6 7 7 7 7 7 7 8 8 7 6 7 3 4 6 6 4 3 3 3 2 2 3 4 4 3 3 3 4 2 4 4 3 4 4 5 4 7 9 7 5 3 3 4 4
4 4 4 4 3 6 9 12 12 12 10 9 7 9 12 13 11 8 9 7 4 6 6 6 6 6 7 7 7 6 6 5 5 4 3 2 2 1 2 5 6 5 5 5 3 3 3 4 3 3 2 4 5 5 5 5 3 3 3 4 3 4 5 5 4 4 5 6 5 4 7 6 7 6
5 5 5 4 4 7 7 8 10 12 13 10 9 11 12 13 13 9 9 10 6 7 7 7 7 8 8 8 7 7 6 5 5 4 4 4 4 5 5 6 4 4 7 8 5 3 2 1 2 3 4 4 5 5 5 4 2 1 4 3 2 4 3 4 4 5 6 6 5 2 9 10 9 7
6 6 6 8 13 14 13 11 10 10 11 9 12 12 12 11 9 7 9 10 9 7 6 7 8 8 8 8 8 8 7 7 7 6 6 6 7 7 7 8 8 8 8 7 5 3 2 1 1 2 4 4 5 5 4 3 3 3 4 3 4 2 3 3 4 5 5 4 5 5 5 6 4 4
5 8 12 14 14 13 14 14 14 11 9 11 13 14 13 11 7 9 9 11 10 8 8 8 9 8 8 8 6 6 7 6 6 7 6 7 8 9 9 9 8 7 5 4 4 3 3 2 2 3 4 5 5 4 3 4 4 4 3 5 4 3 4 2 4 5 5 4 4 4 5 5 6 6
10 10 10 12 13 12 10 8 7 8 9 8 10 12 11 7 7 7 9 11 11 10 10 10 11 9 7 6 6 7 8 8 8 8 8 8 8 8 8 8 7 6 5 5 4 4 3 2 3 4 4 4 4 4 3 4 4 4 4 4 5 5 2 3 4 4 4 4 4 5 5 5 5 5
4 6 7 8 11 12 15 15 13 12 12 9 7 5 6 8 7 9 9 11 12 11 10 11 11 8 7 7 8 9 9 8 7 8 9 8 8 7 7 7 7 6 5 4 3 3 3 4 3 4 4 3 3 4 4 4 5 5 4 3 3 4 4 5 4 4 4 5 5 4 4 5 5 3
9 8 8 8 7 8 9 8 6 6 6 7 7 7 7 7 8 9 11 10 11 12 11 5 4 6 8 8 8 6 6 7 7 8 8 9 8 8 8 7 5 6 5 5 4 4 3 3 3 3 4 4 4 3 3 4 5 5 4 3 4 4 4 4 4 3 4 5 5 5 5 5 5 5
10 8 8 7 7 7 7 7 7 7 7 6 8 9 9 8 8 7 7 9 11 10 5 5 7 6 7 8 8 8 8 8 8 8 8 8 8 7 6 6 7 6 6 6 5 5 4 3 2 3 3 4 4 4 4 4 3 2 3 4 4 4 3 3 3 4 4 4 4 5 5 4 4 4
8 8 8 7 7 7 6 7 7 6 6 7 7 6 7 4 6 7 7 7 8 7 5 4 5 5 7 9 9 10 10 8 7 7 8 7 7 7 6 6 6 5 5 5 5 4 4 3 3 3 3 4 4 5 4 3 3 2 2 3 4 3 3 3 3 3 4 4 4 5 5 4 3 3
5 6 6 6 7 6 7 6 6 6 7 8 8 8 6 4 5 5 6 7 4 4 4 6 5 7 7 9 10 10 12 11 11 11 10 9 9 8 7 7 6 6 5 4 4 4 3 3 3 4 4 4 3 4 4 4 2 2 2 3 3 3 3 3 3 3 3 4 4 4 3 4 3 3
6 6 7 6 6 5 6 6 6 6 5 5 5 6 6 6 5 4 5 5 7 4 5 7 6 7 8 8 4 3 2 5 10 10 8 7 6 5 6 6 6 6 5 4 4 4 3 3 3 3 1 1 2 2 5 8 5 2 2 2 3 3 3 2 2 3 3 3 3 4 4 4 3 4
6 6 6 6 6 6 7 7 6 5 4 5 5 4 5 6 5 5 4 1 4 3 5 5 5 5 5 5 5 5 5 3 3 4 5 5 5 6 5 5 6 5 5 4 4 4 4 3 2 2 2 2 1 1 1 4 7 6 3 2 2 2 3 3 3 1 2 3 4 4 3 2 2 4
5 5 7 8 8 8 8 7 5 4 5 4 4 4 6 6 5 4 2 3 3 2 3 5 5 6 5 5 8 8 6 5 5 3 3 4 4 4 4 5 5 5 5 5 4 4 4 3 3 2 2 1 1 1 1 1 1 5 1 2 2 1 1 2 2 2 2 3 4 4 3 2 2 3
5 6 7 8 8 8 8 7 7 5 7 4 4 4 4 4 3 2 2 3 4 3 4 6 8 8 10 8 6 6 6 6 5 4 3 4 3 4 4 5 5 5 5 5 5 4 4 3 2 2 2 1 1 0 0 0 1 1 5 3 3 1 1 2 2 2 2 2 3 3 1 1 2 4
6 5 6 7 7 8 8 7 7 6 5 5 4 4 3 2 2 2 2 3 4 3 5 6 8 8 7 7 7 8 7 7 6 4 4 3 3 3 3 4 4 5 5 5 4 5 4 3 2 2 1 1 1 1 1 1 1 0 1 4 4 4 2 2 2 2 2 2 3 2 3 2 2 0
6 7 7 7 7 7 7 7 7 7 5 4 3 3 1 0 1 2 2 4 5 6 6 6 8 8 7 7 8 8 7 6 6 4 3 3 3 3 3 4 4 4 4 4 3 3 3 1 3 3 4 2 1 1 1 0 0 1 1 3 8 6 4 4 3 2 2 2 2 2 3 4 3 3
7 7 7 6 7 7 6 6 6 5 4 4 2 0 1 1 2 5 5 4 4 6 8 8 8 6 4 4 4 5 6 6 5 5 4 4 4 4 3 4 4 4 4 4 3 2 2 2 4 4 3 2 2 0 1 1 0 1 0 0 3 9 6 5 6 6 4 2 2 3 3 3 2 3
7 7 7 7 7 6 6 6 5 3 2 2 1 2 2 3 3 4 4 5 5 7 7 7 6 6 5 4 3 3 5 5 4 5 5 5 5 5 4 4 3 3 3 3 3 2 2 1 2 1 1 1 0 0 0 1 0 1 1 2 1 1 3 5 4 4 2 2 5 4 3 3 4 4
8 8 8 7 6 6 5 5 4 3 1 0 2 3 3 3 4 5 4 4 6 7 6 6 5 5 5 4 3 4 4 5 4 4 5 5 4 3 3 4 4 4 4 3 3 2 2 1 0 1 0 0 0 1 1 1 1 1 1 1 1 2 2 2 3 6 7 10 11 8 8 8 6 5
7 7 7 7 6 5 4 3 3 3 2 2 3 4 5 5 6 5 4 4 5 5 6 5 5 5 5 4 5 5 4 5 5 4 4 5 4 3 3 3 4 4 3 3 3 2 1 1 0 0 0 2 1 1 1 0 1 1 1 1 1 1 1 1 2 1 2 1 9 12 9 8 8 8
Wind_Direction
186 182 176 193 158 166 164 174 163 159 158 160 166 172 165 166 154 163 168 182 167 176 187 167 173 181 171 171 167 176 170 131 202 133 128 125 119 105 108 102 102 101 99 95 89 81 72 62 55 52 47 40 26 25 23 22 21 27 28 44 42 34 28 20 23 35 40 44 47 43 42 39 35 34
185 174 176 180 167 154 172 166 160 156 166 167 174 180 174 171 165 165 166 165 187 161 187 205 162 180 176 177 169 179 170 100 253 144 144 140 119 119 118 120 117 115 112 109 107 102 94 82 51 34 28 26 32 11 2 359 1 2 25 25 31 39 37 22 3 32 30 37 42 42 38 36 32 30
183 177 176 175 165 155 163 154 158 163 169 174 176 174 179 189 176 169 169 158 175 185 175 193 175 172 179 178 170 171 182 155 218 174 162 162 111 164 129 127 123 119 119 120 125 124 108 94 59 33 19 356 15 358 335 319 315 332 347 345 358 17 31 26 7 21 35 26 27 35 26 20 21 21
185 179 182 176 164 156 158 162 162 166 173 173 176 169 178 180 183 181 177 177 163 193 187 172 176 175 178 181 180 181 190 144 221 202 192 123 145 201 153 138 132 135 137 142 152 116 102 106 84 47 17 24 22 34 37 331 291 288 279 277 294 317 345 25 16 7 13 15 5 15 10 360 2 4
174 181 180 169 153 159 165 160 163 172 172 170 169 166 173 174 180 194 188 187 141 156 166 174 176 170 182 188 197 189 188 192 198 219 204 176 198 192 186 157 143 150 164 175 188 113 123 111 87 72 61 49 35 34 33 33 27 299 266 262 266 266 297 7 16 355 347 351 354 358 356 346 350 353
149 158 175 165 154 173 181 164 176 172 175 181 182 180 185 184 180 204 199 185 177 170 174 194 186 170 194 202 192 199 193 197 205 204 201 200 213 202 198 194 155 154 176 191 160 125 123 106 95 87 68 51 45 42 39 41 40 34 359 284 289 306 327 356 360 343 332 332 340 343 347 343 342 344
146 151 153 154 154 163 174 174 179 166 181 189 192 188 190 191 187 193 211 183 189 182 183 186 185 187 186 213 189 200 200 205 206 214 210 209 198 211 206 214 186 156 192 164 142 140 120 112 97 85 69 59 54 54 56 62 61 64 74 84 88 56 23 6 337 331 324 322 328 331 337 342 340 338
146 137 134 137 149 162 171 178 174 177 177 188 195 191 189 200 193 196 199 221 226 197 184 188 200 187 182 204 204 189 196 198 209 222 218 207 219 210 203 205 222 147 147 142 146 134 121 104 93 81 74 68 65 67 68 66 66 67 66 66 63 52 44 12 345 329 326 329 325 326 335 338 336 332
129 139 130 134 147 157 160 169 182 182 185 192 196 201 199 208 198 192 209 220 215 208 210 186 197 180 195 201 200 195 201 199 208 207 221 219 214 203 199 198 113 88 112 119 130 117 103 99 90 84 82 82 82 81 76 73 72 71 69 69 65 66 60 39 16 5 354 344 341 337 334 332 327 324
84 88 108 129 146 154 159 164 169 175 185 191 201 207 212 208 194 202 204 216 215 225 225 212 178 195 197 199 205 202 210 210 207 208 205 203 213 196 187 181 156 158 153 165 138 118 108 92 88 90 94 97 94 83 78 77 74 71 72 67 65 61 57 49 36 27 15 6 358 347 341 336 331 328
88 100 124 137 154 167 161 161 170 171 181 191 206 208 205 216 205 203 214 211 211 216 223 217 216 199 200 208 203 193 204 223 229 220 208 213 185 195 192 168 159 151 114 66 51 67 77 97 107 100 100 96 88 81 79 81 76 78 73 72 68 62 57 46 37 27 18 13 6 356 345 336 331 333
115 115 134 152 162 163 163 173 160 172 180 181 198 195 201 202 200 207 203 206 212 211 215 224 206 211 197 191 218 156 185 216 228 229 231 229 197 185 182 180 166 159 155 154 136 119 118 111 110 126 110 96 99 118 119 93 97 92 83 81 70 60 47 39 33 27 19 10 4 359 351 345 345 341
149 154 148 164 160 143 114 92 22 299 333 198 207 189 196 195 202 208 205 206 210 213 218 214 207 206 209 208 195 202 206 213 226 208 205 231 222 175 167 170 172 174 172 167 158 157 167 157 162 168 163 137 157 115 136 127 123 87 81 60 53 40 33 28 23 17 11 1 358 353 348 343 341 340
187 185 186 167 145 160 175 180 188 194 214 250 289 233 190 198 204 207 210 211 214 220 220 224 212 213 219 213 206 213 216 218 211 181 193 217 186 179 183 168 180 178 186 173 171 160 165 179 168 187 160 141 196 160 195 45 42 89 76 67 42 32 21 21 19 14 4 357 349 346 341 338 333 333
191 194 197 187 170 188 187 202 199 196 195 207 216 264 246 232 211 205 212 219 214 222 231 230 223 232 234 222 212 221 226 205 221 226 208 215 179 200 201 209 170 188 194 187 177 162 159 199 194 187 169 160 173 177 106 120 177 148 69 33 23 360 353 356 4 352 348 344 341 337 334 328 327 325
213 201 186 193 188 216 219 232 194 206 210 202 200 210 214 220 244 263 239 225 211 217 233 231 228 233 238 242 209 217 216 223 216 225 221 214 207 209 218 224 213 162 181 184 190 163 160 211 204 183 173 172 179 79 101 166 206 236 332 355 348 341 326 325 330 328 332 336 336 334 328 326 329 330
338 343 329 304 257 25 115 259 247 234 201 207 213 205 205 221 218 221 238 255 248 218 226 240 239 228 237 237 233 206 205 207 232 212 221 220 221 226 231 235 163 137 177 185 195 186 164 185 192 203 179 190 182 153 168 188 210 239 289 322 309 303 299 300 315 315 314 321 325 326 322 322 326 326
328 318 308 298 289 236 204 232 234 235 242 206 196 209 218 218 202 224 222 225 239 248 235 233 241 234 205 236 225 135 159 192 219 209 220 207 216 226 238 60 99 118 170 200 190 194 168 189 201 208 185 188 187 222 128 170 211 249 286 297 290 281 274 279 301 306 310 311 314 313 317 317 315 314
11 339 297 276 277 279 265 248 243 253 238 225 223 227 228 229 221 208 211 216 218 217 229 239 241 250 198 220 142 150 169 199 195 194 195 188 205 111 78 99 106 138 169 219 196 224 162 176 208 213 185 187 212 213 149 191 206 247 278 281 280 275 263 281 296 304 309 312 307 309 313 318 312 306
21 5 342 311 298 293 285 162 187 255 284 261 248 239 235 232 221 222 166 67 356 312 277 255 263 276 319 207 198 172 181 187 170 139 125 134 138 155 200 203 170 176 153 229 216 216 172 176 215 204 184 203 243 204 223 156 203 210 259 268 260 258 290 301 305 307 309 309 307 308 315 308 307 297
8 355 350 335 320 320 315 21 325 238 238 260 259 258 254 247 235 234 185 152 163 240 263 298 307 286 285 255 247 198 198 205 172 174 180 196 184 192 207 189 173 186 165 187 220 227 203 175 207 218 198 213 252 256 225 174 170 202 225 232 234 268 291 303 300 308 303 302 307 312 311 311 309 300
1 61 93 302 315 312 311 8 322 272 229 267 263 261 260 258 252 244 206 171 173 105 87 118 267 284 284 257 228 216 213 203 181 194 210 183 175 201 209 204 191 169 183 181 186 196 216 150 198 229 227 229 226 221 199 185 171 189 209 193 216 231 254 283 294 292 292 297 308 307 306 318 311 284
354 350 136 127 4 353 337 330 315 293 241 275 271 267 267 260 255 252 224 187 201 204 197 203 205 217 186 203 206 192 194 190 199 212 222 175 186 205 210 191 151 176 205 175 179 212 179 192 174 233 262 262 173 158 198 189 233 291 299 263 223 162 249 265 269 259 254 288 292 299 307 335 314 303
334 340 334 31 68 18 353 333 316 294 254 265 273 272 262 260 258 257 251 214 224 212 214 222 210 225 183 186 183 165 173 190 202 208 207 190 201 208 195 182 185 211 165 145 179 216 160 205 187 169 272 289 269 138 194 239 243 285 290 265 285 183 205 233 225 204 225 266 258 268 309 345 339 311
302 305 321 314 4 359 352 346 336 317 285 255 270 268 255 250 284 328 267 233 197 235 219 210 206 207 200 197 193 180 177 180 184 195 199 197 203 201 190 180 190 175 103 142 169 218 185 190 200 166 221 237 271 284 264 246 256 260 258 282 282 295 310 303 315 290 177 200 205 224 221 11 313 304
314 322 322 315 15 20 353 333 322 311 303 280 256 259 265 282 287 262 266 262 201 224 219 217 208 202 199 195 192 185 176 165 155 156 155 155 152 134 169 185 181 178 148 131 187 199 176 194 209 214 226 235 256 245 262 267 260 219 259 274 290 310 309 308 306 300 315 334 308 4 345 313 283 258
322 319 313 306 6 332 307 288 290 294 293 287 262 254 256 260 262 265 253 252 226 218 213 208 207 201 201 194 187 179 169 149 139 137 127 121 108 83 65 50 62 95 114 136 164 166 207 175 153 222 244 243 260 264 254 267 258 254 284 285 303 300 312 308 303 316 322 318 323 240 241 227 223 242
315 317 325 321 321 311 307 297 280 268 266 262 268 271 269 267 260 251 247 238 230 217 204 203 209 207 202 195 183 176 160 144 136 119 112 108 107 101 95 88 82 89 108 125 135 135 135 157 168 210 251 260 258 263 283 292 275 282 294 322 301 311 324 306 305 311 310 318 321 334 342 338 332 289
311 317 307 304 303 302 299 293 287 273 247 240 252 260 262 264 261 252 241 237 227 217 211 212 216 212 198 195 167 128 119 112 106 101 92 94 94 95 92 88 91 91 90 103 117 119 109 112 201 195 221 235 249 268 280 289 305 299 327 325 302 332 320 300 310 313 321 320 322 332 338 335 322 325
284 280 280 281 282 282 277 284 298 306 299 293 268 255 253 260 246 238 239 234 227 219 216 215 218 210 180 168 135 129 127 132 139 134 131 126 125 128 126 121 112 105 105 109 109 106 111 162 201 210 229 233 251 278 281 287 285 297 298 299 310 299 245 313 317 318 318 323 326 330 332 327 323 323
274 296 298 301 295 280 281 277 270 271 279 274 259 252 251 252 239 239 234 233 232 222 220 215 212 186 155 125 129 156 160 150 147 144 138 136 140 143 140 132 131 132 127 123 126 130 167 187 208 216 236 247 241 251 279 290 287 288 290 307 305 300 319 317 313 321 332 325 322 316 324 321 320 340
324 314 301 279 275 291 288 280 285 286 289 283 283 281 280 270 258 256 262 265 251 242 236 221 133 131 145 153 162 151 147 137 136 142 142 144 144 148 144 139 149 151 153 153 146 146 184 194 204 209 239 261 268 274 265 264 277 289 292 299 298 292 304 312 323 330 338 326 320 330 332 325 334 353
314 312 307 310 301 293 296 295 293 295 296 297 294 287 280 276 269 262 246 241 241 239 212 179 163 163 152 157 158 151 146 146 145 155 146 145 144 152 159 153 155 165 171 169 164 165 170 170 186 261 256 244 245 265 273 269 248 243 287 307 309 308 321 323 324 332 335 323 325 327 327 336 352 4
294 293 299 299 298 295 294 293 293 293 296 299 298 293 280 267 266 259 253 244 242 237 214 180 149 142 148 162 167 163 149 142 154 148 133 136 142 151 164 156 161 159 164 159 162 165 164 188 195 192 211 232 255 255 242 242 270 278 294 296 302 318 330 329 334 335 329 322 325 323 330 343 2 11
267 278 282 286 286 282 280 279 282 286 293 294 296 294 293 279 261 251 248 246 237 228 204 186 171 173 178 168 171 169 158 155 154 152 156 154 162 164 161 155 152 154 160 154 157 155 176 187 203 213 216 220 191 168 223 280 285 274 286 290 319 318 325 345 328 327 322 328 331 330 331 343 356 10
269 274 285 286 284 286 284 284 286 288 278 280 280 286 288 285 275 264 258 248 237 202 189 187 175 167 167 165 143 118 145 154 149 143 146 150 150 149 145 141 144 150 155 159 155 154 183 187 215 235 231 228 234 204 173 209 241 319 290 315 319 316 312 321 318 302 307 337 331 331 336 339 349 358
276 290 291 288 290 290 288 292 294 291 283 277 277 276 280 285 288 278 271 235 219 194 174 169 158 155 140 128 116 112 100 75 79 102 117 126 129 130 132 134 142 148 155 149 156 162 178 181 199 229 235 228 227 206 137 143 201 232 348 334 306 304 313 314 313 315 356 334 337 344 337 337 326 352
292 296 297 298 296 296 297 296 293 282 278 278 281 281 275 278 278 273 234 197 157 135 132 139 139 124 113 118 124 123 106 90 85 84 98 113 132 143 151 149 153 160 151 151 164 164 178 179 192 188 241 260 241 181 161 141 125 170 181 345 291 300 301 303 303 349 345 336 331 337 337 326 346 355
303 299 299 297 298 296 296 297 302 298 296 287 276 273 273 266 257 232 199 169 146 134 126 129 133 134 133 131 109 102 109 116 123 137 142 146 156 162 161 158 158 155 149 153 157 162 171 187 185 212 234 257 271 19 324 298 275 103 143 191 268 248 266 274 313 333 324 332 340 336 291 187 193 182
308 298 294 295 295 298 298 302 302 299 285 280 276 274 264 248 223 198 165 145 138 132 129 123 126 124 120 112 116 119 117 127 136 146 156 158 162 161 168 165 159 157 161 157 160 163 175 171 193 224 243 256 340 6 347 336 322 276 176 158 249 280 286 292 297 312 327 338 336 337 4 9 3 64
324 310 302 298 298 299 302 303 305 308 300 287 283 277 268 207 182 175 156 137 131 129 126 122 124 115 116 128 135 135 133 133 128 129 134 146 157 175 151 157 152 168 165 160 166 165 157 128 73 10 294 264 231 214 204 193 56 134 171 159 168 218 259 281 275 270 314 344 329 342 357 8 352 354
330 323 316 315 313 315 314 310 310 305 296 279 261 188 104 83 60 78 106 108 114 117 117 115 112 102 94 105 108 109 110 113 123 126 142 160 165 157 178 184 155 160 162 156 159 142 120 136 164 200 218 219 208 205 65 65 99 183 136 201 160 164 182 227 262 282 304 315 336 2 355 3 7 8
334 336 331 328 323 323 323 321 315 302 286 267 213 131 106 92 96 86 90 87 88 91 89 86 84 79 87 87 78 68 87 100 112 142 163 171 170 170 169 157 147 142 137 134 133 127 133 171 211 227 227 214 163 80 77 64 66 204 210 207 245 273 153 162 219 203 226 258 280 292 336 346 353 357
346 342 343 342 342 343 346 340 331 318 307 222 148 121 94 84 69 64 64 78 95 101 95 86 92 92 95 94 97 104 109 117 136 155 167 166 165 158 149 143 146 138 132 127 129 122 115 154 171 286 274 86 111 141 97 171 167 170 216 229 235 229 221 176 191 201 227 227 225 230 255 281 299 327
344 346 347 351 350 355 360 2 13 28 54 102 113 81 75 74 78 71 79 90 96 102 116 108 110 114 115 119 125 119 115 131 151 165 159 153 150 145 139 143 146 147 127 110 118 118 111 128 129 66 116 96 103 96 102 64 61 113 160 169 189 205 243 213 238 225 228 189 192 197 214 226 248 259